Weather History for Bolton Field, OH

Change the Weather History Date:

Saturday, January 19, 2013

  Actual Average Record
Temperature  
Mean Temperature 42 °F -  
Max Temperature 51 °F 32 °F 53 °F (2006)
Min Temperature 32 °F 19 °F 3 °F (1997)
Degree Days  
Heating Degree Days 24    
Moisture  
Dew Point 26 °F    
Average Humidity 58    
Maximum Humidity 71    
Minimum Humidity 35    
Precipitation  
Precipitation 0.00 in - - ()
Sea Level Pressure  
Sea Level Pressure 30.06 in    
Wind  
Wind Speed 17 mph (SSW)    
Max Wind Speed 30 mph    
Max Gust Speed 41 mph    
Visibility 10 miles    
Events      
Averages and records for this station are not official NWS values.
T = Trace of Precipitation, MM = Missing Value Source: NWS Daily Summary

Daily Weather History Graph

Daily Weather History Graph

Search for Another Location

Airport:

Trip Planner

Search our weather history database for the weather conditions in past years. The results will help you decide how hot, cold, wet, or windy it might be!

Date:

Astronomy

Jan. 19, 2013 Rise Set
Actual Time 7:50 AM EST 5:36 PM EST
Civil Twilight 7:20 AM EST 6:06 PM EST
Nautical Twilight 6:47 AM EST 6:39 PM EST
Astronomical Twilight 6:15 AM EST 7:11 PM EST
Moon 12:02 PM EST 1:23 AM EST
Length of Visible Light 10h 45m
Length of Day
9h 46m
First Quarter, 57% of the Moon is Illuminated
Jan 19
First Quarter
Jan 26
Full
Feb 3
Last Quarter
Feb 10
New
Feb 17
First Quarter

Hourly Weather History & Observations

Time (EST) Temp. Windchill Dew Point Humidity Pressure Visibility Wind Dir Wind Speed Gust Speed Precip Events Conditions
12:15 AM 32.9 °F 23.7 °F 24.3 °F 71% 30.20 in 10.0 mi South 12.7 mph - N/A   Clear
12:35 AM 32.9 °F 23.7 °F 23.9 °F 69% 30.20 in 10.0 mi South 12.7 mph - N/A   Clear
12:55 AM 33.1 °F 23.4 °F 23.9 °F 69% 30.19 in 10.0 mi South 13.8 mph - N/A   Clear
1:15 AM 34.0 °F 23.4 °F 23.0 °F 64% 30.19 in 10.0 mi SSW 17.3 mph 24.2 mph N/A   Clear
1:35 AM 35.6 °F 24.5 °F 23.0 °F 60% 30.19 in 10.0 mi SSW 20.7 mph 26.5 mph N/A   Clear
1:55 AM 35.6 °F 25.2 °F 23.0 °F 60% 30.19 in 10.0 mi SSW 18.4 mph 27.6 mph N/A   Clear
2:15 AM 35.4 °F 24.6 °F 23.0 °F 61% 30.18 in 10.0 mi SSW 19.6 mph 27.6 mph N/A   Clear
2:35 AM 35.4 °F 24.9 °F 23.0 °F 61% 30.18 in 10.0 mi SSW 18.4 mph 26.5 mph N/A   Clear
2:55 AM 35.6 °F 25.9 °F 23.0 °F 60% 30.18 in 10.0 mi SSW 16.1 mph 25.3 mph N/A   Clear
3:15 AM 35.1 °F 25.5 °F 23.4 °F 62% 30.17 in 10.0 mi SSW 15.0 mph - N/A   Clear
3:35 AM 35.6 °F 24.8 °F 23.7 °F 62% 30.16 in 10.0 mi SSW 19.6 mph 25.3 mph N/A   Clear
3:55 AM 35.6 °F 25.2 °F 23.9 °F 62% 30.16 in 10.0 mi SSW 18.4 mph 24.2 mph N/A   Clear
4:15 AM 35.6 °F 26.2 °F 23.9 °F 62% 30.16 in 10.0 mi SSW 15.0 mph 21.9 mph N/A   Clear
4:35 AM 35.6 °F 25.5 °F 24.3 °F 63% 30.16 in 10.0 mi SSW 17.3 mph 21.9 mph N/A   Clear
4:55 AM 35.4 °F 24.6 °F 24.4 °F 64% 30.16 in 10.0 mi SSW 19.6 mph 24.2 mph N/A   Clear
5:15 AM 35.2 °F 25.4 °F 24.4 °F 65% 30.15 in 10.0 mi SSW 16.1 mph 24.2 mph N/A   Clear
5:35 AM 35.1 °F 24.5 °F 24.1 °F 64% 30.15 in 10.0 mi SSW 18.4 mph 23.0 mph N/A   Clear
5:55 AM 34.9 °F 24.6 °F 23.9 °F 64% 30.16 in 10.0 mi SSW 17.3 mph - N/A   Clear
6:15 AM 34.9 °F 24.6 °F 23.7 °F 64% 30.16 in 10.0 mi SSW 17.3 mph 23.0 mph N/A   Clear
6:35 AM 34.3 °F 24.2 °F 23.7 °F 65% 30.15 in 10.0 mi SSW 16.1 mph 23.0 mph N/A   Clear
6:55 AM 34.7 °F 24.3 °F 23.7 °F 64% 30.15 in 10.0 mi SSW 17.3 mph - N/A   Clear
7:15 AM 33.8 °F 22.8 °F 24.8 °F 70% 30.15 in 10.0 mi SSW 18.4 mph - N/A   Clear
7:47 AM 35.6 °F 25.2 °F 24.8 °F 65% 30.15 in 10.0 mi SSW 18.4 mph 25.3 mph N/A   Clear
8:47 AM 35.6 °F 25.9 °F 24.8 °F 65% 30.16 in 10.0 mi SSW 16.1 mph 25.3 mph N/A   Clear
9:50 AM 39.2 °F 29.0 °F 26.6 °F 61% 30.16 in 10.0 mi SSW 21.9 mph 27.6 mph N/A   Clear
10:47 AM 42.8 °F 33.3 °F 26.6 °F 53% 30.15 in 10.0 mi SSW 24.2 mph 33.4 mph N/A   Clear
11:50 AM 46.4 °F 38.3 °F 26.6 °F 46% 30.10 in 10.0 mi SSW 23.0 mph 36.8 mph N/A   Clear
12:50 PM 48.2 °F - 26.6 °F 43% 30.05 in 10.0 mi SSW 20.7 mph 34.5 mph N/A   Clear
1:50 PM 50.0 °F - 26.6 °F 40% 30.01 in 10.0 mi SSW 24.2 mph 34.5 mph N/A   Clear
2:50 PM 51.8 °F - 26.6 °F 38% 29.98 in 10.0 mi SSW 24.2 mph 32.2 mph N/A   Clear
3:55 PM 51.8 °F - 24.8 °F 35% 29.94 in 10.0 mi SSW 29.9 mph 41.4 mph N/A   Clear
4:50 PM 50.0 °F - 26.6 °F 40% 29.93 in 10.0 mi SSW 23.0 mph 34.5 mph N/A   Clear
5:50 PM 46.4 °F 39.2 °F 26.6 °F 46% 29.90 in 10.0 mi South 18.4 mph 26.5 mph N/A   Clear
6:50 PM 46.4 °F 41.1 °F 26.6 °F 46% 29.89 in 10.0 mi South 11.5 mph 23.0 mph N/A   Clear
8:15 PM 44.4 °F 37.2 °F 27.7 °F 52% 29.90 in 10.0 mi SSW 16.1 mph 21.9 mph N/A   Clear
8:35 PM 44.1 °F 36.2 °F 27.9 °F 53% 29.89 in 10.0 mi SSW 18.4 mph 24.2 mph N/A   Clear
8:55 PM 43.7 °F 35.7 °F 27.9 °F 54% 29.89 in 10.0 mi SSW 18.4 mph 23.0 mph N/A   Clear
9:15 PM 43.2 °F 35.3 °F 28.0 °F 55% 29.89 in 10.0 mi SSW 17.3 mph 20.7 mph N/A   Clear
9:35 PM 43.2 °F 35.6 °F 28.0 °F 55% 29.89 in 10.0 mi SSW 16.1 mph 23.0 mph N/A   Clear
9:55 PM 42.8 °F 35.1 °F 28.2 °F 56% 29.89 in 10.0 mi SSW 16.1 mph 23.0 mph N/A   Clear
10:15 PM 42.8 °F 35.4 °F 28.2 °F 56% 29.88 in 10.0 mi SSW 15.0 mph - N/A   Clear
10:35 PM 42.8 °F 34.8 °F 28.4 °F 57% 29.87 in 10.0 mi SSW 17.3 mph 25.3 mph N/A   Clear
10:55 PM 43.0 °F 34.5 °F 28.9 °F 58% 29.87 in 10.0 mi SSW 19.6 mph 25.3 mph N/A   Clear
11:15 PM 43.3 °F 35.2 °F 29.1 °F 57% 29.87 in 10.0 mi SSW 18.4 mph 25.3 mph N/A   Clear
11:35 PM 43.2 °F 34.7 °F 29.3 °F 58% 29.86 in 10.0 mi SSW 19.6 mph 28.8 mph N/A   Clear
11:55 PM 43.2 °F 34.2 °F 29.3 °F 58% 29.86 in 10.0 mi SSW 21.9 mph 28.8 mph N/A   Clear